This is the latest recevied weather packets stored in our database for station/object EA4GEL-16. If no packets are shown the sender has not sent any weather packets the latest 10 day(s).
| Time | Temp. | Humidity | Pressure | Rain* | Wind** | Luminosity | Snow |
|---|---|---|---|---|---|---|---|
| 1787375130 | 23.89° C | 41% | 942.8 hPa | - | - | - | - |
| 1787374230 | 24.44° C | 41% | 942.7 hPa | - | - | - | - |
| 1787373330 | 24.44° C | 39% | 942.4 hPa | - | - | - | - |
| 1787372430 | 25° C | 36% | 942.4 hPa | - | - | - | - |
| 1787371530 | 25° C | 37% | 942.4 hPa | - | - | - | - |
| 1787370630 | 25° C | 36% | 942.5 hPa | - | - | - | - |
| 1787369730 | 25° C | 36% | 942.5 hPa | - | - | - | - |
| 1787368829 | 25° C | 36% | 942.4 hPa | - | - | - | - |
| 1787367929 | 24.44° C | 37% | 942.5 hPa | - | - | - | - |
| 1787367029 | 24.44° C | 39% | 942.4 hPa | - | - | - | - |
| 1787366129 | 23.89° C | 40% | 942.5 hPa | - | - | - | - |
| 1787365229 | 24.44° C | 39% | 942.4 hPa | - | - | - | - |
| 1787364329 | 23.89° C | 40% | 942.5 hPa | - | - | - | - |
| 1787363429 | 23.89° C | 41% | 942.5 hPa | - | - | - | - |
| 1787362529 | 24.44° C | 40% | 942.5 hPa | - | - | - | - |
| 1787361628 | 24.44° C | 40% | 942.5 hPa | - | - | - | - |
| 1787360728 | 24.44° C | 40% | 942.5 hPa | - | - | - | - |
| 1787359828 | 25° C | 40% | 942.6 hPa | - | - | - | - |
| 1787358028 | 25° C | 39% | 942.7 hPa | - | - | - | - |
| 1787357128 | 25.56° C | 39% | 942.8 hPa | - | - | - | - |
* Rain since midnight (hover to see other rain measurements)
** Current wind speed in m/s (hover to see current wind gust speed)